• Join FlightAware (Why Join?)
  • Login
  • US Flag 
01:12AM EST


 

Airport Tracker/Info


-or-


 

Live Flight TrackerFlight Track Log ✈ SWA1030 ✈ 06-May-2013 ✈ KSJC - KSNA

Flight Track Log - Related Links

Times and Time Zones

All times are in EDT time to prevent confusion due to time zone crossing. See the SWA1030 flight status page for this flight to view local times or setup timezone preferences in your user account.

Time Position Orientation Groundspeed Altitude Reporting Facility
EDT Latitude Longitude Course Direction KTS MPH feet Rate Location/Type
05:02PM 37.3333 -121.9000 135° Southeast 176 203 2,300  Level Northern Cal TRACON
05:04PM 37.2534 -121.7735 122° Southeast  Level FlightAware Approximate
05:04PM 37.2400 -121.7836 122° Southeast 250 288 8,600  Level Oakland Center
05:05PM 37.1792 -121.7144 138° Southeast 296 341 12,000 3,590 Climbing Oakland Center
05:06PM 37.1111 -121.6336 137° Southeast 334 384 15,900 3,393 Climbing Oakland Center
05:07PM 37.0303 -121.5408 137° Southeast 350 403 18,900 2,410 Climbing Oakland Center
05:08PM 36.9583 -121.4556 137° Southeast 355 409 20,800 2,488 Climbing Oakland Center
05:09PM 36.8819 -121.3669 137° Southeast 372 428 24,000 2,878 Climbing Oakland Center
05:10PM 36.8061 -121.2811 138° Southeast 382 440 26,700 2,246 Climbing Oakland Center
05:12PM 36.6356 -121.0894 138° Southeast 407 468 30,700 1,934 Climbing Los Angeles Center
05:13PM 36.5236 -120.9625 138° Southeast 444 511 32,600 1,857 Climbing Oakland Center
05:14PM 36.4297 -120.8533 137° Southeast 457 526 34,600 1,696 Climbing Oakland Center
05:16PM 36.2364 -120.6364 138° Southeast 469 540 37,800 1,565 Climbing Oakland Center
05:17PM 36.1403 -120.5281 138° Southeast 468 539 39,400 1,426 Climbing Oakland Center
05:18PM 36.0425 -120.4147 137° Southeast 488 562 40,700 738 Climbing Oakland Center
05:19PM 35.9486 -120.3139 139° Southeast 449 517 40,900 96 Climbing Oakland Center
05:21PM 35.7339 -120.0750 138° Southeast 467 537 41,000 33 Climbing Los Angeles Center
05:22PM 35.6431 -120.0214 154° Southeast 467 537 41,000  Level Oakland Center
05:23PM 35.5239 -119.9658 159° South 455 524 41,000  Level Oakland Center
05:24PM 35.4014 -119.9139 161° South 460 529 41,000  Level Oakland Center
05:26PM 35.2556 -119.8486 160° South 461 531 41,000 -138 Level Los Angeles Center
05:27PM 35.1464 -119.7572 146° Southeast 470 541 40,700 -1,603 Descending Los Angeles Center
05:30PM 34.8089 -119.4694 145° Southeast 462 532 34,400 -2,087 Descending Los Angeles Center
05:32PM 34.6244 -119.3147 145° Southeast 447 514 30,300 -2,081 Descending Oakland Center
05:34PM 34.4175 -119.1442 146° Southeast 407 468 25,800 -2,102 Descending Los Angeles Center
05:35PM 34.3086 -119.0528 145° Southeast 398 458 23,400 -1,887 Descending Los Angeles Center
05:37PM 34.1731 -118.9290 147° Southeast  Level FlightAware Approximate
05:38PM 34.0628 -118.8497 147° Southeast 343 395 18,000  Level Los Angeles Center
05:39PM 33.9861 -118.7864 146° Southeast 336 387 16,200 -1,935 Descending Los Angeles Center
05:40PM 33.8944 -118.7122 146° Southeast 329 379 14,000 -1,065 Descending Los Angeles Center
05:41PM 33.8119 -118.6819 163° South 313 360 14,000 -1,097 Level Los Angeles Center
05:43PM 33.6500 -118.5833 153° Southeast 315 362 10,600 -1,453 Descending Southern California TRACON
05:44PM 33.6000 -118.4833 121° Southeast 299 344 9,400 -1,016 Descending Southern California TRACON
05:45PM 33.5667 -118.4150 120° Southeast 293 337 8,500 -950 Descending Los Angeles Center
05:46PM 33.5336 -118.3314 115° Southeast 290 334 7,500 -968 Descending Los Angeles Center
05:48PM 33.5789 -118.1597 72° East 277 319 5,500 -806 Descending Los Angeles Center
05:49PM 33.6053 -118.0644 72° East 260 299 5,000 -256 Descending Los Angeles Center
05:50PM 33.6500 -118.0167 42° Northeast 234 269 5,000 -102 Level Southern California TRACON
05:52PM 33.7667 -117.9333 31° Northeast 241 277 4,700 -423 Descending Southern California TRACON
05:54PM 33.8500 -117.8333 45° Northeast 213 245 3,300 -597 Descending Southern California TRACON
05:55PM 33.8333 -117.7833 112° Southeast 214 246 2,900 -613 Descending Southern California TRACON
05:58PM 33.7167 -117.8500 205° Southwest 129 148 900 -690 Descending Southern California TRACON
06:02PM 33.6757 -117.8682 157° South  Level Estimated
06:09PM 33.6757 -117.8682 157° South  Level Estimated
06:10PM 33.6757 -117.8682 157° South  Level Estimated
06:11PM 33.6757 -117.8682 157° South  Level Estimated
06:12PM 33.6757 -117.8682 157° South  Level Estimated